Weather History for Wellsville, NY

Change the Weather History Date:

Friday, May 31, 2013

  Actual Average (KBFD) Record (KBFD)
Temperature  
Mean Temperature 74 °F 57 °F  
Max Temperature 84 °F 70 °F 86 °F (2006)
Min Temperature 64 °F 45 °F 29 °F (2001)
Degree Days  
Heating Degree Days 0 4  
Month to date heating degree days 242  
Since 1 July heating degree days 7628  
Cooling Degree Days 9 1  
Month to date cooling degree days 8  
Year to date cooling degree days 10  
Growing Degree Days 24 (Base 50)    
Moisture  
Dew Point 57 °F    
Average Humidity 56    
Maximum Humidity 84    
Minimum Humidity 36    
Precipitation  
Precipitation 0.00 in 0.15 in 1.34 in (2010)
Month to date precipitation 4.18  
Year to date precipitation 16.74  
Sea Level Pressure  
Sea Level Pressure 30.09 in    
Wind  
Wind Speed 5 mph (SW)    
Max Wind Speed 13 mph    
Max Gust Speed 21 mph    
Visibility 10 miles    
Events      
T = Trace of Precipitation, MM = Missing Value Source: NWS Daily Summary

Daily Weather History Graph

Daily Weather History Graph

Search for Another Location

Airport:

Trip Planner

Search our weather history database for the weather conditions in past years. The results will help you decide how hot, cold, wet, or windy it might be!

Date:

Astronomy

May. 31, 2013 Rise Set
Actual Time 5:38 AM EDT 8:40 PM EDT
Civil Twilight 5:05 AM EDT 9:14 PM EDT
Nautical Twilight 4:22 AM EDT 9:57 PM EDT
Astronomical Twilight 3:31 AM EDT 10:48 PM EDT
Moon 1:09 AM EDT (5/31) 12:57 PM EDT (5/31)
Length of Visible Light 16h 09m
Length of Day
15h 01m
Waning Gibbous, 51% of the Moon is Illuminated
May 31
Waning Gibbous
May 31
Last Quarter
Jun 8
New
Jun 16
First Quarter
Jun 23
Full

Hourly Weather History & Observations

Time (EDT) Temp. Heat Index Dew Point Humidity Pressure Visibility Wind Dir Wind Speed Gust Speed Precip Events Conditions
12:56 AM 66.9 °F - 57.9 °F 73% 30.15 in 10.0 mi Calm Calm - N/A   Clear
1:56 AM 69.1 °F - 59.0 °F 70% 30.14 in 10.0 mi SW 3.5 mph - N/A   Clear
2:56 AM 68.0 °F - 60.1 °F 76% 30.13 in 10.0 mi SW 5.8 mph - N/A   Clear
3:56 AM 69.1 °F - 59.0 °F 70% 30.13 in 10.0 mi SW 4.6 mph - N/A   Clear
4:56 AM 64.0 °F - 59.0 °F 84% 30.13 in 10.0 mi Calm Calm - N/A   Clear
5:56 AM 66.9 °F - 59.0 °F 76% 30.14 in 10.0 mi WSW 5.8 mph - N/A   Clear
6:56 AM 69.1 °F - 61.0 °F 75% 30.15 in 10.0 mi Calm Calm - N/A   Clear
7:56 AM 72.0 °F - 61.0 °F 68% 30.14 in 10.0 mi SSW 4.6 mph - N/A   Clear
8:56 AM 75.0 °F - 63.0 °F 66% 30.14 in 10.0 mi SW 6.9 mph - N/A   Clear
9:56 AM 77.0 °F - 61.0 °F 58% 30.13 in 10.0 mi SW 8.1 mph - N/A   Clear
10:56 AM 78.1 °F - 59.0 °F 52% 30.13 in 10.0 mi WSW 11.5 mph 16.1 mph N/A   Clear
11:56 AM 80.1 °F 80.1 °F 55.0 °F 42% 30.12 in 10.0 mi West 9.2 mph - N/A   Scattered Clouds
12:56 PM 81.0 °F 81.1 °F 57.9 °F 45% 30.11 in 10.0 mi SW 6.9 mph - N/A   Partly Cloudy
1:56 PM 82.0 °F 82.1 °F 59.0 °F 45% 30.08 in 10.0 mi SW 9.2 mph - N/A   Partly Cloudy
2:56 PM 82.9 °F 82.1 °F 55.9 °F 39% 30.06 in 10.0 mi SW 8.1 mph 19.6 mph N/A   Scattered Clouds
3:56 PM 84.0 °F 83.0 °F 55.9 °F 38% 30.04 in 10.0 mi SW 11.5 mph 17.3 mph N/A   Scattered Clouds
4:56 PM 82.9 °F 81.8 °F 53.1 °F 36% 30.03 in 10.0 mi SW 10.4 mph 20.7 mph N/A   Clear
5:56 PM 82.0 °F 81.2 °F 53.1 °F 37% 30.01 in 10.0 mi SSW 12.7 mph 19.6 mph N/A   Scattered Clouds
6:56 PM 79.0 °F - 54.0 °F 42% 30.01 in 10.0 mi SW 6.9 mph - N/A   Clear
7:56 PM 77.0 °F - 54.0 °F 45% 30.01 in 10.0 mi SSW 5.8 mph - N/A   Clear
8:56 PM 75.9 °F - 53.1 °F 45% 30.02 in 10.0 mi SW 5.8 mph - N/A   Clear
9:56 PM 73.9 °F - 54.0 °F 50% 30.03 in 10.0 mi WSW 3.5 mph - N/A   Clear
10:56 PM 73.0 °F - 55.0 °F 53% 30.02 in 10.0 mi SW 3.5 mph - N/A   Clear
11:56 PM 73.0 °F - 55.9 °F 55% 30.01 in 10.0 mi WSW 3.5 mph - N/A   Clear